{"data":{"norad_id":64331,"intl_designator":"2025-124Q","name":"STARLINK-34050","alt_names":[],"object_type":"PAYLOAD","status":"ACTIVE","operator":null,"country":"US","launch_date":"2025-06-10","launch_site_code":"AFETR","launch_vehicle":null,"mission":null,"orbit_class":"UNKNOWN","rcs_meters":null,"size_class":null,"mass_kg":null,"dimensions":null,"purposes":["comms"],"wikipedia_slug":null,"has_3d_model":false,"image_url":null,"decayed_at":null,"tle_current":{"epoch":"2026-05-25T00:28:18.921216Z","epoch_age_seconds":69488,"freshness":"FRESH","line1":"1 64331U 25124Q   26145.01966344  .00014554  00000+0  53712-3 0  9991","line2":"2 64331  42.9998  50.6742 0001613 275.8855  84.1813 15.27593742 54510","mean_motion":15.27593742,"eccentricity":0.0001613,"inclination_deg":42.9998,"raan_deg":50.6742,"arg_perigee_deg":275.8855,"mean_anomaly_deg":84.1813,"bstar":0.00053712,"rev_number":5451,"period_min":94.265900704377,"perigee_km":481.90124517638,"apogee_km":484.11465053656,"semimajor_km":6861.1449478565,"source":"CELESTRAK","updated_at":"2026-05-25T13:38:20.396932Z"}}}